Location: Prairie State College
(41.5244°N, 87.6382°W)
Time: 07:15:15
(UTC-06:00)

MSX - Visible Passes

Search period start: 21 January 2017 00:00
Search period end: 31 January 2017 00:00
Orbit: 893 x 907 km, 98.7° (Epoch: 18 January)

Date Brightness Start Highest point End Pass type
(mag) Time Alt. Az. Time Alt. Az. Time Alt. Az.
21 Jan 5.4 05:48:28 10° NNE 05:53:49 38° E 05:59:10 10° SSE visible
21 Jan 3.8 17:21:45 10° SSE 17:27:27 77° ENE 17:33:12 10° N visible
21 Jan 6.8 19:06:44 10° WSW 19:09:47 15° W 19:12:51 10° WNW visible
22 Jan 5.3 05:51:11 10° NNE 05:56:37 41° E 06:02:01 10° SSE visible
22 Jan 3.8 17:24:31 10° SSE 17:30:13 81° ENE 17:35:59 10° NNW visible
22 Jan 6.9 19:09:49 10° WSW 19:12:36 14° W 19:15:24 10° WNW visible
23 Jan 5.2 05:53:55 10° NNE 05:59:25 43° E 06:04:52 10° S visible
23 Jan 3.8 17:27:16 10° SSE 17:32:59 85° ENE 17:38:46 10° NNW visible
23 Jan 7.0 19:12:58 10° WSW 19:15:25 13° W 19:17:53 10° WNW visible
24 Jan 5.1 05:56:39 10° NNE 06:02:12 46° E 06:07:43 10° S visible
24 Jan 3.9 17:30:03 10° SSE 17:35:46 90° ENE 17:41:32 10° NNW visible
24 Jan 7.0 19:16:10 10° WSW 19:18:14 12° W 19:20:19 10° WNW visible
25 Jan 5.0 05:59:24 10° NNE 06:04:59 48° E 06:10:33 10° S visible
25 Jan 3.9 17:32:48 10° SSE 17:38:32 86° WSW 17:44:19 10° NNW visible
25 Jan 7.1 19:19:29 10° WSW 19:21:03 11° W 19:22:38 10° WNW visible
26 Jan 4.8 06:02:09 10° NNE 06:07:47 51° E 06:13:23 10° S visible
26 Jan 4.0 17:35:35 10° SSE 17:41:18 82° WSW 17:47:05 10° NNW visible
26 Jan 7.2 19:23:07 10° W 19:23:52 10° W 19:24:39 10° W visible
27 Jan 4.7 06:04:53 10° NNE 06:10:34 54° E 06:16:12 10° S visible
27 Jan 4.1 17:38:22 10° S 17:44:04 78° WSW 17:49:51 10° NNW visible
28 Jan 4.6 06:07:38 10° NNE 06:13:21 58° E 06:19:01 10° S visible
28 Jan 4.2 17:41:09 10° S 17:46:51 73° WSW 17:52:37 10° NNW visible
29 Jan 4.5 06:10:24 10° NNE 06:16:08 61° ESE 06:21:50 10° S visible
29 Jan 4.3 17:43:57 10° S 17:49:38 69° WSW 17:55:23 10° NNW visible
30 Jan 4.4 06:13:09 10° NNE 06:18:55 65° ESE 06:24:39 10° S visible
30 Jan 4.4 17:46:45 10° S 17:52:25 65° WSW 17:58:09 10° NNW visible
